Location: Unspecified
(38.7273°N, 77.0677°W)
Time: 17:11:33
(UTC-04:00)

UNISAT 6 - Visible Passes

Search period start: 19 September 2021 00:00
Search period end: 29 September 2021 00:00
Orbit: 607 x 687 km, 97.7° (Epoch: 19 September)

Date Brightness Start Highest point End Pass type
(mag) Time Alt. Az. Time Alt. Az. Time Alt. Az.
19 Sep ? 06:26:59 10° ESE 06:30:16 21° ENE 06:33:38 10° NNE visible
19 Sep ? 19:54:33 10° NNE 19:59:11 56° E 20:03:46 10° S visible
19 Sep ? 21:32:45 10° NNW 21:35:21 15° WNW 21:37:56 10° W visible
20 Sep ? 20:20:07 10° N 20:24:49 77° WNW 20:29:29 10° SSW visible
21 Sep ? 20:45:59 10° N 20:50:22 40° WNW 20:54:44 10° SW visible
22 Sep ? 06:08:31 10° E 06:10:44 14° ENE 06:12:59 10° NE visible
22 Sep ? 19:35:05 10° NNE 19:39:24 35° E 19:43:38 10° SSE visible
22 Sep ? 21:12:11 10° NNW 21:15:49 23° WNW 21:19:27 10° WSW visible
23 Sep ? 20:00:25 10° NNE 20:05:06 66° E 20:09:43 10° S visible
23 Sep ? 21:39:08 10° NW 21:41:10 13° WNW 21:43:12 10° W visible
24 Sep ? 20:26:03 10° N 20:30:43 65° WNW 20:35:19 10° SSW visible
25 Sep ? 20:52:00 10° N 20:56:14 35° WNW 21:00:26 10° SW visible
26 Sep ? 06:13:47 10° ESE 06:16:32 16° ENE 06:19:20 10° NNE visible
26 Sep ? 19:40:53 10° NNE 19:45:19 40° E 19:49:40 10° SSE visible
26 Sep ? 21:18:19 10° NNW 21:21:39 20° WNW 21:24:58 10° WSW visible
27 Sep ? 20:06:18 10° NNE 20:11:01 78° ESE 20:15:37 10° S visible
27 Sep ? 21:45:49 10° NW 21:46:58 11° WNW 21:48:07 10° WNW visible
28 Sep ? 20:32:01 10° N 20:36:36 55° WNW 20:41:06 10° SSW visible
